Terminal Aerodrome Forecast
Issued by NWS Sterling, VA

Current Version | Previous Version | Text Only | Print | Product List | Glossary Off
Versions: 1 2 3 4 5 6 7 8 9 10 11 12 13 14 15 16 17 18 19 20 21

000
FTUS41 KLWX 221722
TAFIAD
TAF
KIAD 221722Z 2218/2324 33014G29KT P6SM FEW250
     FM222200 34012G21KT P6SM SKC
     FM230000 34009KT P6SM SKC
     FM230400 34005KT P6SM SKC
     FM232000 19004KT P6SM FEW250=

USA.gov is the U.S. government's official web portal to all federal, state and local government web resources and services.